Location: Kuffner-Sternwarte
(48.2130°N, 16.2960°E)
Time: 08:14:49
(UTC+02:00)

COROT - Pass Details

Date: 20 January 2018
Orbit: 602 x 887 km, 90.0° (Epoch: 16 July)

Event Time Altitude Azimuth Distance (km) Brightness Sun altitude
Exits shadow 04:46:32 21° 164° (SSE) 1,419 7.5 -28.0°
Drops below altitude 10° 04:48:09 10° 170° (S) 2,048 8.3 -27.7°
Sets 04:50:28 0° 174° (S) 2,993 9.1 -27.3°
